• MPC Preparation (Info)

  • MPEC 2013-R28 : 2013 RB6

    The following Minor Planet Electronic Circular may be linked-to from your own Web pages, but must not otherwise be redistributed electronically.

    A form allowing access to any MPEC is at the bottom of this page.


    Read MPEC 2013-R27 Read MPEC 2013-R29


    M.P.E.C. 2013-R28                                Issued 2013 Sept. 3, 21:41 UT
    
         The Minor Planet Electronic Circulars contain information on unusual
             minor planets and routine data on comets.  They are published
       on behalf of Commission 20 of the International Astronomical Union by the
              Minor Planet Center, Smithsonian Astrophysical Observatory,
                              Cambridge, MA 02138, U.S.A.
    
                 Prepared using the Tamkin Foundation Computer Network
    
                                  MPC@CFA.HARVARD.EDU
                URL https://www.minorplanetcenter.net/    ISSN 1523-6714
    
                                       2013 RB6
    
    Observations:
         K13R06B* C2013 09 02.25197 23 59 33.05 +00 34 23.5          19.8 VqER028G96
         K13R06B  C2013 09 02.25264 23 59 32.86 +00 34 26.2          19.6 VqER028G96
         K13R06B  C2013 09 02.25332 23 59 32.67 +00 34 28.9          19.6 VqER028G96
         K13R06B  C2013 09 02.25398 23 59 32.49 +00 34 31.5          19.6 VqER028G96
         K13R06B  C2013 09 02.25466 23 59 32.30 +00 34 34.4          19.8 VqER028G96
         K13R06B  C2013 09 02.29574 23 59 20.64 +00 37 23.5          20.0 VqER028G96
         K13R06B  C2013 09 02.29641 23 59 20.45 +00 37 26.5          20.1 VqER028G96
         K13R06B  C2013 09 02.29708 23 59 20.25 +00 37 29.4          19.6 VqER028G96
         K13R06B  C2013 09 02.29776 23 59 20.07 +00 37 32.1          19.6 VqER028G96
         K13R06B KC2013 09 02.30826223 59 16.28 +00 38 11.8          19.8 VqER028H21
         K13R06B KC2013 09 02.31457523 59 14.49 +00 38 37.9          19.8 VqER028H21
         K13R06B KC2013 09 02.32089123 59 12.71 +00 39 03.9          19.9 VqER028H21
         K13R06B  C2013 09 02.32382 23 59 12.61 +00 39 19.3          20.4 VqER028G96
         K13R06B  C2013 09 02.32437 23 59 12.49 +00 39 21.7          20.7 VqER028G96
         K13R06B  C2013 09 02.32494 23 59 12.31 +00 39 24.3          20.8 VqER028G96
         K13R06B  C2013 09 02.32551 23 59 12.14 +00 39 26.4          20.2 VqER028G96
         K13R06B KC2013 09 02.32699123 59 10.98 +00 39 29.3          19.8 VqER028H21
         K13R06B KC2013 09 02.33309223 59 09.23 +00 39 54.3          19.9 VqER028H21
         K13R06B KC2013 09 02.33961623 59 07.37 +00 40 21.8          19.9 VqER028H21
         K13R06B KC2013 09 02.35687923 59 01.85 +00 42 13.0          20.1 VqER028W85
         K13R06B KC2013 09 02.36194523 59 00.42 +00 42 33.8          20.2 VqER028W85
         K13R06B KC2013 09 02.36701123 58 58.97 +00 42 54.7          20.0 VqER028W85
         K13R06B KC2013 09 02.39942 23 58 50.61 +00 44 28.4          19.6 RqER028H36
         K13R06B KC2013 09 02.40423 23 58 49.30 +00 44 47.1          19.2 RqER028H36
         K13R06B  C2013 09 02.40845 23 58 48.43 +00 45 08.3          19.9 VqER028G96
         K13R06B KC2013 09 02.40971 23 58 47.68 +00 45 09.9          19.4 RqER028H36
         K13R06B  C2013 09 02.41604 23 58 46.25 +00 45 39.6          19.6 VqER028G96
         K13R06B  C2013 09 02.42372 23 58 44.06 +00 46 11.2          19.9 VqER028G96
         K13R06B  C2013 09 02.43134 23 58 41.88 +00 46 42.7          19.9 VqER028G96
         K13R06B KC2013 09 02.94683 23 56 21.21 +01 22 09.5          19.7 RtER028A79
         K13R06B KC2013 09 02.95121 23 56 19.92 +01 22 27.5          19.7 RtER028A79
         K13R06B KC2013 09 03.03681523 55 55.99 +01 28 21.6          19.6 VuER028I93
         K13R06B KC2013 09 03.04021 23 55 55.01 +01 28 33.3                qER028J95
         K13R06B KC2013 09 03.04495 23 55 53.67 +01 28 52.7                qER028J95
         K13R06B KC2013 09 03.04751323 55 52.91 +01 29 06.3          20.0 VuER028I93
         K13R06B KC2013 09 03.04924 23 55 52.42 +01 29 10.6          19.4 RqER028J95
         K13R06B KC2013 09 03.05830023 55 49.75 +01 29 51.6          20.1 VuER028I93
         K13R06B KC2013 09 03.06266 23 55 48.25 +01 30 08.7                tER028204
         K13R06B KC2013 09 03.07520 23 55 44.62 +01 31 00.9                tER028204
         K13R06B KC2013 09 03.08831 23 55 40.84 +01 31 55.2          19.4 RtER028204
         K13R06B KC2013 09 03.28704823 54 46.21 +01 45 44.1          19.9 VuER028H21
         K13R06B KC2013 09 03.29323123 54 44.41 +01 46 09.5          19.9 VuER028H21
         K13R06B KC2013 09 03.29615023 54 43.55 +01 46 21.7          20.0 VuER028H21
    
    Observer details:
    204 Schiaparelli Observatory.  Observer L. Buzzi.  0.36-m f/7.3 reflector
        + CCD.
    A79 Zvezdno Obshtestvo Observatory, Plana.  Observers F. Fratev, M. Minkov.
        Measurer F. Fratev.  0.35-m f/3.5 reflector + CCD.
    G96 Mt. Lemmon Survey.  Observer A. Boattini.  Measurers A. Boattini,
        E. J. Christensen, A. R. Gibbs, A. D. Grauer, R. E. Hill, J. A. Johnson,
        R. A. Kowalski, S. M. Larson, R. H. McNaught, F. C. Shelly.  1.5-m
        reflector + CCD.
    H21 Astronomical Research Observatory, Westfield.  Observer R. Holmes.
        Measurers R. Holmes, T. Linder, S. Foglia, L. Buzzi, T. Vorobjov.  0.76-m
        f/3.0 astrograph + CCD, 0.81-m f/4.0 astrograph + CCD.
    H36 Sandlot Observatory, Scranton.  Observer G. Hug.  0.56-m reflector + CCD.
    I93 St Pardon de Conques.  Observer F. Losse.  0.40-m f/3.7 reflector + CCD.
    J95 Great Shefford.  Observer P. Birtwhistle.  0.40-m f/6.0 Schmidt-Cassegrain
        + CCD.
    W85 Cerro Tololo-LCOGT A.  Observers E. J. Christensen, S. M. Larson,
        T. Lister.  Measurer T. Lister.  1.0-m f/8 Ritchey-Chretien + CCD.
    
    Orbital elements:
    2013 RB6                                                 Earth MOID = 0.2326 AU
    Epoch 2013 Nov. 4.0 TT = JDT 2456600.5                  MPC
    M 323.17636              (2000.0)            P               Q
    n   0.71077784     Peri.   83.32991     +0.36927246     -0.92182351
    a   1.2435029      Node   343.43077     +0.60180823     +0.33380238
    e   0.0143310      Incl.   24.40085     +0.70814173     +0.19702131
    P   1.39           H   21.6           G   0.15           U   8
    Residuals in seconds of arc
    130902 G96  0.2+  0.4-    130902 G96  0.1+  0.4-    130902 A79  0.1-  0.9-
    130902 G96  0.2+  0.4-    130902 H21  0.5+  0.0     130903 I93  0.5+  0.7-
    130902 G96  0.2+  0.5-    130902 H21  0.3+  0.2-    130903 J95  0.2+  0.1-
    130902 G96  0.3+  0.6-    130902 H21  0.3+  0.4+    130903 J95  0.5+  0.4-
    130902 G96  0.3+  0.5-    130902 W85  0.3+  0.2-    130903 I93  0.6+  0.4-
    130902 G96  0.3+  0.7-    130902 W85  0.4+  0.3-    130903 J95  0.2+  0.3-
    130902 G96  0.3+  0.4-    130902 W85  0.2+  0.3-    130903 I93  0.1-  0.1+
    130902 G96  0.1+  0.3-    130902 H36  0.4+  0.2+    130903 204  0.1+  0.2-
    130902 G96  0.3+  0.4-    130902 H36  1.2+  0.9-    130903 204  0.1-  0.1-
    130902 H21  0.1+  0.4-    130902 G96  0.2+  0.4-    130903 204  0.2-  0.2-
    130902 H21  0.2+  0.3-    130902 H36  0.2+  0.7-    130903 H21  0.3+  0.0
    130902 H21  0.5+  0.3-    130902 G96  0.0   0.4-    130903 H21  0.3+  0.3-
    130902 G96  0.1-  0.6-    130902 G96  0.1+  0.5-    130903 H21  0.1+  0.3-
    130902 G96  0.4+  0.4-    130902 G96  0.0   0.4-
    130902 G96  0.2+  0.2-    130902 A79  0.4+  0.7-
    
    Ephemeris:
    2013 RB6                 a,e,i = 1.24, 0.01, 24                  q = 1.2257
    Date    TT    R. A. (2000) Decl.     Delta      r     Elong.  Phase     V
    2013 08 04    01 14 37.7 -22 49 15   0.3813  1.2475   119.5    45.0    21.7
    ...
    2013 08 19    00 50 29.2 -13 27 23   0.2956  1.2442   136.8    33.8    20.8
    ...
    2013 08 27    00 25 26.7 -06 12 50   0.2615  1.2424   149.3    24.5    20.3
    ...
    2013 09 02    00 00 40.4 +00 17 24   0.2450  1.2411   159.2    16.8    19.9
    2013 09 03    23 56 06.3 +01 26 11   0.2432  1.2409   160.7    15.6    19.9
    2013 09 04    23 51 25.7 +02 35 35   0.2416  1.2407   162.1    14.5    19.8
    ...
    2013 09 10    23 21 45.9 +09 32 17   0.2387  1.2394   165.3    11.9    19.7
    ...
    2013 09 18    22 41 40.8 +17 46 40   0.2514  1.2377   155.3    19.8    20.1
    ...
    2013 10 03    21 43 39.8 +27 19 45   0.3130  1.2347   132.7    36.5    21.0
    
    A. U. Tomatic                (C) Copyright 2013 MPC           M.P.E.C. 2013-R28
    

    Read MPEC 2013-R27 Read MPEC 2013-R29


    MPEC number:

    Enter an MPEC number in one of the following forms:

    • 1997-B01 (the full form)
    • J97B01 (the packed version of the full form)
    • B01 (the abbreviated form)